Back to catalog

FENGYUN 1C DEB

AlivePO
NORAD 36645·DEBRIS·🇨🇳 China

Launched May 10, 1999 from Taiyuan Satellite Launch Center

Loading…

Next Passes (next 24 hours)

TLE

FreshSource: Space-Track

Epoch: Sep 13, 2026, 06:30 UTC

1 36645U 99025DXP 26256.27111426  .00000828  00000-0  88027-3 0  9990
2 36645  98.5140  11.7368 0291780  43.5244 318.8530 13.59516171612767

Track FENGYUN 1C DEB in real time with AllMySat

Download on the App Store